Location: Charbonni�res
(45.9952°N, 2.9982°E)
Time: 17:59:38
(UTC+00:00)

PAYLOAD B - Pass Details

Date: 29 November 2020
Orbit: 849 x 872 km, 99.1° (Epoch: 17 January)

Event Time Altitude Azimuth Distance (km) Brightness Sun altitude
Rises 06:15:53 0° 13° (NNE) 3,437 7.3 -8.8°
Reaches altitude 10° 06:18:16 10° 11° (NNE) 2,493 6.5 -8.5°
Maximum altitude 06:23:47 73° 289° (WNW) 891 4.2 -7.6°
Drops below altitude 10° 06:29:14 10° 205° (SSW) 2,469 6.6 -6.7°
Sets 06:31:35 0° 203° (SSW) 3,400 7.4 -6.3°
